Time,TemperatureF,DewpointF,PressureIn,WindDirection,WindDirectionDegrees,WindSpeedMPH,WindSpeedGustMPH,Humidity,HourlyPrecipIn,Conditions,Clouds,dailyrainin,SoftwareType,DateUTC
2013-04-18 00:00:00,74.0,68.8,30.18,East,90,11.0,22.0,84,0.00,,,0.00,Weather View 32 v70,2013-04-18 04:00:00,
2013-04-18 00:05:00,74.0,68.8,30.18,East,90,12.0,22.0,84,0.00,,,0.00,Weather View 32 v70,2013-04-18 04:05:00,
2013-04-18 00:10:00,74.0,68.8,30.18,East,90,3.0,22.0,84,0.00,,,0.00,Weather View 32 v70,2013-04-18 04:10:00,
2013-04-18 00:15:00,73.0,67.9,30.18,ENE,67,4.0,22.0,84,0.00,,,0.00,Weather View 32 v70,2013-04-18 04:15:00,
2013-04-18 00:20:00,73.0,67.9,30.18,East,90,7.0,22.0,84,0.00,,,0.00,Weather View 32 v70,2013-04-18 04:20:00,
2013-04-18 00:25:00,73.0,67.9,30.18,East,90,10.0,22.0,84,0.00,,,0.00,Weather View 32 v70,2013-04-18 04:25:00,
2013-04-18 00:30:00,73.0,67.9,30.18,East,90,6.0,22.0,84,0.00,,,0.00,Weather View 32 v70,2013-04-18 04:30:00,
2013-04-18 00:35:00,73.0,67.9,30.18,East,90,17.0,22.0,84,0.00,,,0.00,Weather View 32 v70,2013-04-18 04:35:00,
2013-04-18 00:40:00,73.0,67.9,30.18,East,90,6.0,22.0,84,0.00,,,0.00,Weather View 32 v70,2013-04-18 04:40:00,
2013-04-18 00:45:00,73.0,67.9,30.17,East,90,2.0,22.0,84,0.00,,,0.00,Weather View 32 v70,2013-04-18 04:45:00,
2013-04-18 00:50:00,73.0,67.9,30.18,ENE,67,6.0,22.0,84,0.00,,,0.00,Weather View 32 v70,2013-04-18 04:50:00,
2013-04-18 00:55:00,73.0,67.9,30.18,East,90,13.0,22.0,84,0.00,,,0.00,Weather View 32 v70,2013-04-18 04:55:00,
2013-04-18 01:00:00,73.0,67.9,30.18,East,90,7.0,21.0,84,0.00,,,0.00,Weather View 32 v70,2013-04-18 05:00:00,
2013-04-18 01:05:00,73.0,67.9,30.18,ENE,67,7.0,17.0,84,0.00,,,0.00,Weather View 32 v70,2013-04-18 05:05:00,
2013-04-18 01:10:00,73.0,67.5,30.18,ENE,67,3.0,17.0,83,0.00,,,0.00,Weather View 32 v70,2013-04-18 05:10:00,
2013-04-18 01:15:00,73.0,67.5,30.18,ENE,67,9.0,17.0,83,0.00,,,0.00,Weather View 32 v70,2013-04-18 05:15:00,
2013-04-18 01:20:00,72.0,66.5,30.18,ENE,67,7.0,17.0,83,0.00,,,0.00,Weather View 32 v70,2013-04-18 05:20:00,
2013-04-18 01:25:00,72.0,66.5,30.17,East,90,7.0,17.0,83,0.00,,,0.00,Weather View 32 v70,2013-04-18 05:25:00,
2013-04-18 01:35:00,72.0,66.5,30.17,East,90,6.0,17.0,83,0.00,,,0.00,Weather View 32 v70,2013-04-18 05:35:00,
2013-04-18 01:40:00,72.0,66.2,30.17,ENE,67,9.0,17.0,82,0.00,,,0.00,Weather View 32 v70,2013-04-18 05:40:00,
2013-04-18 01:45:00,72.0,66.2,30.17,East,90,12.0,17.0,82,0.00,,,0.00,Weather View 32 v70,2013-04-18 05:45:00,
2013-04-18 01:50:00,72.0,66.2,30.17,East,90,10.0,17.0,82,0.00,,,0.00,Weather View 32 v70,2013-04-18 05:50:00,
2013-04-18 01:55:00,72.0,66.2,30.17,East,90,6.0,17.0,82,0.00,,,0.00,Weather View 32 v70,2013-04-18 05:55:00,
2013-04-18 02:00:00,72.0,66.2,30.17,ENE,67,7.0,17.0,82,0.00,,,0.00,Weather View 32 v70,2013-04-18 06:00:00,
2013-04-18 02:05:00,72.0,66.2,30.16,East,90,9.0,16.0,82,0.00,,,0.00,Weather View 32 v70,2013-04-18 06:05:00,
2013-04-18 02:10:00,72.0,66.2,30.16,ENE,67,7.0,16.0,82,0.00,,,0.00,Weather View 32 v70,2013-04-18 06:10:00,
2013-04-18 02:15:00,71.0,64.9,30.16,ENE,67,6.0,16.0,81,0.00,,,0.00,Weather View 32 v70,2013-04-18 06:15:00,
2013-04-18 02:25:00,71.0,64.9,30.15,ENE,67,10.0,16.0,81,0.00,,,0.00,Weather View 32 v70,2013-04-18 06:25:00,
2013-04-18 02:30:00,71.0,64.5,30.15,East,90,6.0,15.0,80,0.00,,,0.00,Weather View 32 v70,2013-04-18 06:30:00,
2013-04-18 02:35:00,71.0,64.5,30.15,ENE,67,9.0,15.0,80,0.00,,,0.00,Weather View 32 v70,2013-04-18 06:35:00,
2013-04-18 02:40:00,71.0,64.5,30.15,ENE,67,6.0,15.0,80,0.00,,,0.00,Weather View 32 v70,2013-04-18 06:40:00,
2013-04-18 02:50:00,71.0,64.5,30.15,SSE,157,2.0,15.0,80,0.00,,,0.00,Weather View 32 v70,2013-04-18 06:50:00,
2013-04-18 02:55:00,71.0,64.5,30.14,East,90,1.0,15.0,80,0.00,,,0.00,Weather View 32 v70,2013-04-18 06:55:00,
2013-04-18 03:00:00,71.0,64.5,30.14,East,90,4.0,15.0,80,0.00,,,0.00,Weather View 32 v70,2013-04-18 07:00:00,
2013-04-18 03:05:00,71.0,64.1,30.14,East,90,5.0,15.0,79,0.00,,,0.00,Weather View 32 v70,2013-04-18 07:05:00,
2013-04-18 03:10:00,71.0,64.1,30.14,East,90,12.0,16.0,79,0.00,,,0.00,Weather View 32 v70,2013-04-18 07:10:00,
2013-04-18 03:15:00,71.0,63.8,30.14,East,90,9.0,16.0,78,0.00,,,0.00,Weather View 32 v70,2013-04-18 07:15:00,
2013-04-18 03:20:00,71.0,63.8,30.14,East,90,5.0,16.0,78,0.00,,,0.00,Weather View 32 v70,2013-04-18 07:20:00,
2013-04-18 03:25:00,71.0,63.8,30.13,East,90,4.0,16.0,78,0.00,,,0.00,Weather View 32 v70,2013-04-18 07:25:00,
2013-04-18 03:30:00,71.0,63.8,30.13,SSE,157,9.0,16.0,78,0.00,,,0.00,Weather View 32 v70,2013-04-18 07:30:00,
2013-04-18 03:35:00,71.0,63.8,30.13,East,90,13.0,16.0,78,0.00,,,0.00,Weather View 32 v70,2013-04-18 07:35:00,
2013-04-18 03:40:00,71.0,63.8,30.13,East,90,12.0,16.0,78,0.00,,,0.00,Weather View 32 v70,2013-04-18 07:40:00,
2013-04-18 03:45:00,71.0,63.8,30.13,ENE,67,5.0,16.0,78,0.00,,,0.00,Weather View 32 v70,2013-04-18 07:45:00,
2013-04-18 03:50:00,71.0,63.4,30.13,East,90,4.0,16.0,77,0.00,,,0.00,Weather View 32 v70,2013-04-18 07:50:00,
2013-04-18 03:55:00,71.0,63.0,30.13,East,90,6.0,16.0,76,0.00,,,0.00,Weather View 32 v70,2013-04-18 07:55:00,
2013-04-18 04:00:00,71.0,62.6,30.13,East,90,12.0,16.0,75,0.00,,,0.00,Weather View 32 v70,2013-04-18 08:00:00,
2013-04-18 04:10:00,71.0,62.6,30.13,East,90,4.0,17.0,75,0.00,,,0.00,Weather View 32 v70,2013-04-18 08:10:00,
2013-04-18 04:20:00,71.0,62.6,30.13,SSE,157,4.0,17.0,75,0.00,,,0.00,Weather View 32 v70,2013-04-18 08:20:00,
2013-04-18 04:25:00,70.0,61.3,30.13,East,90,8.0,17.0,74,0.00,,,0.00,Weather View 32 v70,2013-04-18 08:25:00,
2013-04-18 04:30:00,71.0,61.9,30.13,East,90,2.0,17.0,73,0.00,,,0.00,Weather View 32 v70,2013-04-18 08:30:00,
2013-04-18 04:35:00,71.0,61.9,30.13,East,90,6.0,17.0,73,0.00,,,0.00,Weather View 32 v70,2013-04-18 08:35:00,
2013-04-18 04:40:00,70.0,60.5,30.13,SSE,157,5.0,17.0,72,0.00,,,0.00,Weather View 32 v70,2013-04-18 08:40:00,
2013-04-18 04:45:00,70.0,60.1,30.13,East,90,7.0,17.0,71,0.00,,,0.00,Weather View 32 v70,2013-04-18 08:45:00,
2013-04-18 04:50:00,70.0,60.1,30.13,East,90,6.0,17.0,71,0.00,,,0.00,Weather View 32 v70,2013-04-18 08:50:00,
2013-04-18 04:55:00,70.0,60.1,30.13,East,90,6.0,17.0,71,0.00,,,0.00,Weather View 32 v70,2013-04-18 08:55:00,
2013-04-18 05:00:00,70.0,60.1,30.13,East,90,7.0,17.0,71,0.00,,,0.00,Weather View 32 v70,2013-04-18 09:00:00,
2013-04-18 05:05:00,70.0,59.7,30.13,East,90,8.0,17.0,70,0.00,,,0.00,Weather View 32 v70,2013-04-18 09:05:00,
2013-04-18 05:10:00,70.0,59.7,30.12,East,90,12.0,15.0,70,0.00,,,0.00,Weather View 32 v70,2013-04-18 09:10:00,
2013-04-18 05:15:00,70.0,59.7,30.12,East,90,7.0,15.0,70,0.00,,,0.00,Weather View 32 v70,2013-04-18 09:15:00,
2013-04-18 05:20:00,70.0,59.7,30.13,East,90,8.0,15.0,70,0.00,,,0.00,Weather View 32 v70,2013-04-18 09:20:00,
2013-04-18 05:25:00,70.0,59.7,30.12,East,90,10.0,15.0,70,0.00,,,0.00,Weather View 32 v70,2013-04-18 09:25:00,
2013-04-18 05:35:00,70.0,59.7,30.13,SSE,157,10.0,15.0,70,0.00,,,0.00,Weather View 32 v70,2013-04-18 09:35:00,
2013-04-18 05:40:00,70.0,59.7,30.13,East,90,13.0,15.0,70,0.00,,,0.00,Weather View 32 v70,2013-04-18 09:40:00,
2013-04-18 05:45:00,70.0,59.7,30.13,East,90,2.0,15.0,70,0.00,,,0.00,Weather View 32 v70,2013-04-18 09:45:00,
2013-04-18 05:50:00,70.0,59.7,30.13,ENE,67,8.0,15.0,70,0.00,,,0.00,Weather View 32 v70,2013-04-18 09:50:00,
2013-04-18 05:55:00,70.0,60.1,30.13,East,90,13.0,17.0,71,0.00,,,0.00,Weather View 32 v70,2013-04-18 09:55:00,
2013-04-18 06:05:00,71.0,61.1,30.13,East,90,8.0,17.0,71,0.00,,,0.00,Weather View 32 v70,2013-04-18 10:05:00,
2013-04-18 06:10:00,71.0,61.5,30.13,East,90,11.0,17.0,72,0.00,,,0.00,Weather View 32 v70,2013-04-18 10:10:00,
2013-04-18 06:15:00,70.0,60.5,30.13,SSE,157,4.0,17.0,72,0.00,,,0.00,Weather View 32 v70,2013-04-18 10:15:00,
2013-04-18 06:20:00,71.0,61.9,30.13,East,90,8.0,17.0,73,0.00,,,0.00,Weather View 32 v70,2013-04-18 10:20:00,
2013-04-18 06:25:00,71.0,61.9,30.13,SSE,157,3.0,17.0,73,0.00,,,0.00,Weather View 32 v70,2013-04-18 10:25:00,
2013-04-18 06:30:00,71.0,61.9,30.13,East,90,6.0,17.0,73,0.00,,,0.00,Weather View 32 v70,2013-04-18 10:30:00,
2013-04-18 06:35:00,71.0,61.9,30.13,SSE,157,5.0,17.0,73,0.00,,,0.00,Weather View 32 v70,2013-04-18 10:35:00,
2013-04-18 06:40:00,71.0,61.9,30.13,ENE,67,8.0,17.0,73,0.00,,,0.00,Weather View 32 v70,2013-04-18 10:40:00,
2013-04-18 06:50:00,70.0,60.5,30.13,East,90,4.0,17.0,72,0.00,,,0.00,Weather View 32 v70,2013-04-18 10:50:00,
2013-04-18 06:55:00,70.0,60.5,30.14,East,90,9.0,15.0,72,0.00,,,0.00,Weather View 32 v70,2013-04-18 10:55:00,
2013-04-18 07:00:00,70.0,60.9,30.14,East,90,8.0,15.0,73,0.00,,,0.00,Weather View 32 v70,2013-04-18 11:00:00,
2013-04-18 07:05:00,70.0,60.9,30.14,SSE,157,7.0,15.0,73,0.00,,,0.00,Weather View 32 v70,2013-04-18 11:05:00,
2013-04-18 07:10:00,71.0,61.9,30.14,East,90,12.0,15.0,73,0.00,,,0.00,Weather View 32 v70,2013-04-18 11:10:00,
2013-04-18 07:15:00,71.0,61.9,30.14,East,90,10.0,15.0,73,0.00,,,0.00,Weather View 32 v70,2013-04-18 11:15:00,
2013-04-18 07:20:00,71.0,61.9,30.14,SSE,157,6.0,15.0,73,0.00,,,0.00,Weather View 32 v70,2013-04-18 11:20:00,
2013-04-18 07:25:00,71.0,61.9,30.14,SSE,157,10.0,15.0,73,0.00,,,0.00,Weather View 32 v70,2013-04-18 11:25:00,
2013-04-18 07:30:00,71.0,61.9,30.15,East,90,12.0,15.0,73,0.00,,,0.00,Weather View 32 v70,2013-04-18 11:30:00,
2013-04-18 07:35:00,71.0,61.9,30.15,ENE,67,4.0,15.0,73,0.00,,,0.00,Weather View 32 v70,2013-04-18 11:35:00,
2013-04-18 07:40:00,71.0,61.9,30.15,ENE,67,6.0,15.0,73,0.00,,,0.00,Weather View 32 v70,2013-04-18 11:40:00,
2013-04-18 07:45:00,71.0,61.9,30.15,East,90,6.0,15.0,73,0.00,,,0.00,Weather View 32 v70,2013-04-18 11:45:00,
2013-04-18 07:50:00,71.0,61.9,30.15,East,90,7.0,15.0,73,0.00,,,0.00,Weather View 32 v70,2013-04-18 11:50:00,
2013-04-18 07:56:00,71.0,62.3,30.16,East,90,7.0,15.0,74,0.00,,,0.00,Weather View 32 v70,2013-04-18 11:56:00,
2013-04-18 08:05:00,71.0,61.9,30.17,ENE,67,9.0,15.0,73,0.00,,,0.00,Weather View 32 v70,2013-04-18 12:05:00,
2013-04-18 08:10:00,71.0,61.9,30.17,East,90,2.0,15.0,73,0.00,,,0.00,Weather View 32 v70,2013-04-18 12:10:00,
2013-04-18 08:15:00,71.0,61.9,30.17,East,90,7.0,15.0,73,0.00,,,0.00,Weather View 32 v70,2013-04-18 12:15:00,
2013-04-18 08:20:00,71.0,61.9,30.17,ENE,67,12.0,15.0,73,0.00,,,0.00,Weather View 32 v70,2013-04-18 12:20:00,
2013-04-18 08:25:00,71.0,61.9,30.17,ENE,67,7.0,15.0,73,0.00,,,0.00,Weather View 32 v70,2013-04-18 12:25:00,
2013-04-18 08:30:00,71.0,61.9,30.17,East,90,7.0,14.0,73,0.00,,,0.00,Weather View 32 v70,2013-04-18 12:30:00,
2013-04-18 08:35:00,72.0,63.2,30.18,East,90,9.0,14.0,74,0.00,,,0.00,Weather View 32 v70,2013-04-18 12:35:00,
2013-04-18 08:40:00,72.0,63.2,30.18,ENE,67,6.0,15.0,74,0.00,,,0.00,Weather View 32 v70,2013-04-18 12:40:00,
2013-04-18 08:45:00,72.0,63.2,30.18,East,90,10.0,15.0,74,0.00,,,0.00,Weather View 32 v70,2013-04-18 12:45:00,
2013-04-18 08:50:00,72.0,63.2,30.18,East,90,7.0,15.0,74,0.00,,,0.00,Weather View 32 v70,2013-04-18 12:50:00,
2013-04-18 08:55:00,72.0,63.6,30.18,ENE,67,11.0,15.0,75,0.00,,,0.00,Weather View 32 v70,2013-04-18 12:55:00,
2013-04-18 09:00:00,72.0,63.6,30.18,East,90,5.0,15.0,75,0.00,,,0.00,Weather View 32 v70,2013-04-18 13:00:00,
2013-04-18 09:10:00,72.0,63.6,30.19,East,90,10.0,15.0,75,0.00,,,0.00,Weather View 32 v70,2013-04-18 13:10:00,
2013-04-18 09:15:00,72.0,63.6,30.19,ENE,67,8.0,16.0,75,0.00,,,0.00,Weather View 32 v70,2013-04-18 13:15:00,
2013-04-18 09:20:00,73.0,65.0,30.19,SSE,157,1.0,16.0,76,0.00,,,0.00,Weather View 32 v70,2013-04-18 13:20:00,
2013-04-18 09:25:00,73.0,65.3,30.19,East,90,9.0,16.0,77,0.00,,,0.00,Weather View 32 v70,2013-04-18 13:25:00,
2013-04-18 09:30:00,73.0,65.7,30.19,East,90,2.0,16.0,78,0.00,,,0.00,Weather View 32 v70,2013-04-18 13:30:00,
2013-04-18 09:35:00,73.0,65.7,30.19,East,90,7.0,16.0,78,0.00,,,0.00,Weather View 32 v70,2013-04-18 13:35:00,
2013-04-18 09:40:00,73.0,65.7,30.19,East,90,8.0,16.0,78,0.00,,,0.00,Weather View 32 v70,2013-04-18 13:40:00,
2013-04-18 09:45:00,74.0,66.7,30.19,ENE,67,6.0,16.0,78,0.00,,,0.00,Weather View 32 v70,2013-04-18 13:45:00,
2013-04-18 09:50:00,74.0,66.7,30.20,SSE,157,11.0,17.0,78,0.00,,,0.00,Weather View 32 v70,2013-04-18 13:50:00,
2013-04-18 09:55:00,74.0,66.7,30.20,East,90,13.0,17.0,78,0.00,,,0.00,Weather View 32 v70,2013-04-18 13:55:00,
2013-04-18 10:00:00,74.0,66.7,30.20,ENE,67,2.0,17.0,78,0.00,,,0.00,Weather View 32 v70,2013-04-18 14:00:00,
2013-04-18 10:05:00,74.0,67.0,30.20,East,90,8.0,17.0,79,0.00,,,0.00,Weather View 32 v70,2013-04-18 14:05:00,
2013-04-18 10:10:00,74.0,67.0,30.20,East,90,6.0,17.0,79,0.00,,,0.00,Weather View 32 v70,2013-04-18 14:10:00,
2013-04-18 10:15:00,75.0,68.4,30.20,East,90,4.0,17.0,80,0.00,,,0.00,Weather View 32 v70,2013-04-18 14:15:00,
2013-04-18 10:20:00,75.0,68.4,30.20,SSE,157,7.0,17.0,80,0.00,,,0.00,Weather View 32 v70,2013-04-18 14:20:00,
2013-04-18 10:25:00,74.0,67.4,30.20,SSE,157,11.0,17.0,80,0.00,,,0.00,Weather View 32 v70,2013-04-18 14:25:00,
2013-04-18 10:30:00,75.0,68.4,30.20,East,90,11.0,17.0,80,0.00,,,0.00,Weather View 32 v70,2013-04-18 14:30:00,
2013-04-18 10:40:00,76.0,69.7,30.20,SSE,157,5.0,17.0,81,0.00,,,0.00,Weather View 32 v70,2013-04-18 14:40:00,
2013-04-18 10:45:00,76.0,69.7,30.21,East,90,10.0,17.0,81,0.00,,,0.00,Weather View 32 v70,2013-04-18 14:45:00,
2013-04-18 10:50:00,76.0,69.7,30.21,East,90,14.0,17.0,81,0.00,,,0.00,Weather View 32 v70,2013-04-18 14:50:00,
2013-04-18 10:55:00,76.0,70.1,30.21,ENE,67,6.0,17.0,82,0.00,,,0.00,Weather View 32 v70,2013-04-18 14:55:00,
2013-04-18 11:05:00,77.0,71.1,30.21,East,90,8.0,17.0,82,0.00,,,0.00,Weather View 32 v70,2013-04-18 15:05:00,
2013-04-18 11:10:00,76.0,70.1,30.21,East,90,11.0,17.0,82,0.00,,,0.00,Weather View 32 v70,2013-04-18 15:10:00,
2013-04-18 11:15:00,76.0,70.4,30.21,East,90,7.0,17.0,83,0.00,,,0.00,Weather View 32 v70,2013-04-18 15:15:00,
2013-04-18 11:20:00,76.0,70.1,30.21,SSE,157,13.0,17.0,82,0.00,,,0.00,Weather View 32 v70,2013-04-18 15:20:00,
2013-04-18 11:25:00,77.0,71.1,30.21,ENE,67,5.0,17.0,82,0.00,,,0.00,Weather View 32 v70,2013-04-18 15:25:00,
2013-04-18 11:30:00,77.0,71.4,30.20,East,90,12.0,17.0,83,0.00,,,0.00,Weather View 32 v70,2013-04-18 15:30:00,
2013-04-18 11:35:00,77.0,71.4,30.21,ENE,67,12.0,17.0,83,0.00,,,0.00,Weather View 32 v70,2013-04-18 15:35:00,
2013-04-18 11:40:00,77.0,71.4,30.20,East,90,13.0,17.0,83,0.00,,,0.00,Weather View 32 v70,2013-04-18 15:40:00,
2013-04-18 11:45:00,77.0,71.4,30.21,SSE,157,7.0,17.0,83,0.00,,,0.00,Weather View 32 v70,2013-04-18 15:45:00,
2013-04-18 11:55:00,78.0,72.4,30.21,East,90,8.0,17.0,83,0.00,,,0.00,Weather View 32 v70,2013-04-18 15:55:00,
2013-04-18 12:00:00,78.0,72.4,30.21,SSE,157,9.0,17.0,83,0.00,,,0.00,Weather View 32 v70,2013-04-18 16:00:00,
2013-04-18 12:05:00,78.0,72.7,30.21,ENE,67,6.0,17.0,84,0.00,,,0.00,Weather View 32 v70,2013-04-18 16:05:00,
2013-04-18 12:10:00,78.0,72.7,30.21,East,90,9.0,17.0,84,0.00,,,0.00,Weather View 32 v70,2013-04-18 16:10:00,
2013-04-18 12:15:00,79.0,73.7,30.21,SSE,157,6.0,17.0,84,0.00,,,0.00,Weather View 32 v70,2013-04-18 16:15:00,
2013-04-18 12:20:00,79.0,74.1,30.21,SSE,157,9.0,17.0,85,0.00,,,0.00,Weather View 32 v70,2013-04-18 16:20:00,
2013-04-18 12:25:00,79.0,74.1,30.21,East,90,11.0,17.0,85,0.00,,,0.00,Weather View 32 v70,2013-04-18 16:25:00,
2013-04-18 12:30:00,80.0,75.1,30.22,East,90,7.0,17.0,85,0.00,,,0.00,Weather View 32 v70,2013-04-18 16:30:00,
2013-04-18 12:35:00,80.0,75.1,30.21,East,90,9.0,16.0,85,0.00,,,0.00,Weather View 32 v70,2013-04-18 16:35:00,
2013-04-18 12:40:00,81.0,76.0,30.21,ENE,67,9.0,16.0,85,0.00,,,0.00,Weather View 32 v70,2013-04-18 16:40:00,
2013-04-18 12:45:00,80.0,75.1,30.21,ENE,67,7.0,16.0,85,0.00,,,0.00,Weather View 32 v70,2013-04-18 16:45:00,
2013-04-18 12:50:00,80.0,75.1,30.21,ENE,67,12.0,16.0,85,0.00,,,0.00,Weather View 32 v70,2013-04-18 16:50:00,
2013-04-18 12:55:00,80.0,75.1,30.21,East,90,5.0,16.0,85,0.00,,,0.00,Weather View 32 v70,2013-04-18 16:55:00,
2013-04-18 13:00:00,80.0,75.1,30.21,ENE,67,9.0,16.0,85,0.00,,,0.00,Weather View 32 v70,2013-04-18 17:00:00,
2013-04-18 13:05:00,80.0,75.1,30.20,East,90,4.0,16.0,85,0.00,,,0.00,Weather View 32 v70,2013-04-18 17:05:00,
2013-04-18 13:10:00,81.0,76.0,30.20,ENE,67,10.0,16.0,85,0.00,,,0.00,Weather View 32 v70,2013-04-18 17:10:00,
2013-04-18 13:20:00,82.0,77.0,30.20,SSE,157,8.0,17.0,85,0.00,,,0.00,Weather View 32 v70,2013-04-18 17:20:00,
2013-04-18 13:25:00,82.0,77.0,30.20,SSE,157,9.0,17.0,85,0.00,,,0.00,Weather View 32 v70,2013-04-18 17:25:00,
2013-04-18 13:30:00,82.0,77.0,30.20,East,90,8.0,17.0,85,0.00,,,0.00,Weather View 32 v70,2013-04-18 17:30:00,
2013-04-18 13:35:00,82.0,77.0,30.20,East,90,0.0,17.0,85,0.00,,,0.00,Weather View 32 v70,2013-04-18 17:35:00,
2013-04-18 13:40:00,82.0,77.0,30.20,East,90,6.0,17.0,85,0.00,,,0.00,Weather View 32 v70,2013-04-18 17:40:00,
2013-04-18 13:45:00,82.0,77.0,30.20,East,90,9.0,17.0,85,0.00,,,0.00,Weather View 32 v70,2013-04-18 17:45:00,
2013-04-18 13:50:00,82.0,77.0,30.20,East,90,8.0,17.0,85,0.00,,,0.00,Weather View 32 v70,2013-04-18 17:50:00,
2013-04-18 13:55:00,84.0,79.3,30.21,SSE,157,6.0,17.0,86,0.00,,,0.00,Weather View 32 v70,2013-04-18 17:55:00,
2013-04-18 14:00:00,83.0,78.0,30.21,East,90,10.0,17.0,85,0.00,,,0.00,Weather View 32 v70,2013-04-18 18:00:00,
2013-04-18 14:10:00,82.0,77.0,30.20,East,90,6.0,17.0,85,0.00,,,0.00,Weather View 32 v70,2013-04-18 18:10:00,
2013-04-18 14:15:00,83.0,78.0,30.20,ENE,67,6.0,15.0,85,0.00,,,0.00,Weather View 32 v70,2013-04-18 18:15:00,
2013-04-18 14:25:00,83.0,78.0,30.19,East,90,7.0,14.0,85,0.00,,,0.00,Weather View 32 v70,2013-04-18 18:25:00,
2013-04-18 14:30:00,82.0,77.0,30.19,East,90,10.0,14.0,85,0.00,,,0.00,Weather View 32 v70,2013-04-18 18:30:00,
2013-04-18 14:35:00,83.0,78.0,30.19,ENE,67,6.0,14.0,85,0.00,,,0.00,Weather View 32 v70,2013-04-18 18:35:00,
2013-04-18 14:40:00,83.0,78.0,30.19,ENE,67,7.0,14.0,85,0.00,,,0.00,Weather View 32 v70,2013-04-18 18:40:00,
2013-04-18 14:45:00,84.0,79.3,30.19,East,90,5.0,14.0,86,0.00,,,0.00,Weather View 32 v70,2013-04-18 18:45:00,
2013-04-18 14:50:00,85.0,80.7,30.19,East,90,13.0,14.0,87,0.00,,,0.00,Weather View 32 v70,2013-04-18 18:50:00,
2013-04-18 14:55:00,84.0,79.7,30.19,East,90,9.0,14.0,87,0.00,,,0.00,Weather View 32 v70,2013-04-18 18:55:00,
2013-04-18 15:00:00,82.0,77.4,30.19,East,90,13.0,14.0,86,0.00,,,0.00,Weather View 32 v70,2013-04-18 19:00:00,
2013-04-18 15:05:00,83.0,78.4,30.19,East,90,2.0,14.0,86,0.00,,,0.00,Weather View 32 v70,2013-04-18 19:05:00,
2013-04-18 15:10:00,84.0,79.7,30.18,East,90,9.0,14.0,87,0.00,,,0.00,Weather View 32 v70,2013-04-18 19:10:00,
2013-04-18 15:15:00,83.0,78.4,30.17,ENE,67,2.0,14.0,86,0.00,,,0.00,Weather View 32 v70,2013-04-18 19:15:00,
2013-04-18 15:20:00,84.0,79.7,30.17,ENE,67,12.0,14.0,87,0.00,,,0.00,Weather View 32 v70,2013-04-18 19:20:00,
2013-04-18 15:25:00,85.0,80.7,30.18,ENE,67,5.0,13.0,87,0.00,,,0.00,Weather View 32 v70,2013-04-18 19:25:00,
2013-04-18 15:30:00,84.0,79.7,30.18,East,90,4.0,13.0,87,0.00,,,0.00,Weather View 32 v70,2013-04-18 19:30:00,
2013-04-18 15:40:00,84.0,79.7,30.18,East,90,4.0,14.0,87,0.00,,,0.00,Weather View 32 v70,2013-04-18 19:40:00,
2013-04-18 15:45:00,85.0,80.7,30.18,ENE,67,3.0,14.0,87,0.00,,,0.00,Weather View 32 v70,2013-04-18 19:45:00,
2013-04-18 15:50:00,84.0,79.7,30.17,East,90,2.0,14.0,87,0.00,,,0.00,Weather View 32 v70,2013-04-18 19:50:00,
2013-04-18 15:55:00,84.0,79.7,30.17,SSE,157,4.0,14.0,87,0.00,,,0.00,Weather View 32 v70,2013-04-18 19:55:00,
2013-04-18 16:00:00,83.0,78.4,30.17,SSE,157,7.0,14.0,86,0.00,,,0.00,Weather View 32 v70,2013-04-18 20:00:00,
2013-04-18 16:05:00,83.0,78.4,30.16,SSE,157,6.0,14.0,86,0.00,,,0.00,Weather View 32 v70,2013-04-18 20:05:00,
2013-04-18 16:10:00,83.0,78.4,30.16,East,90,6.0,14.0,86,0.00,,,0.00,Weather View 32 v70,2013-04-18 20:10:00,
2013-04-18 16:15:00,83.0,78.4,30.16,East,90,0.0,14.0,86,0.00,,,0.00,Weather View 32 v70,2013-04-18 20:15:00,
2013-04-18 16:20:00,83.0,78.4,30.15,WSW,247,0.0,14.0,86,0.00,,,0.00,Weather View 32 v70,2013-04-18 20:20:00,
2013-04-18 16:25:00,83.0,78.4,30.15,WSW,247,2.0,14.0,86,0.00,,,0.00,Weather View 32 v70,2013-04-18 20:25:00,
2013-04-18 16:30:00,82.0,77.0,30.15,WSW,247,6.0,14.0,85,0.00,,,0.00,Weather View 32 v70,2013-04-18 20:30:00,
2013-04-18 16:35:00,82.0,77.0,30.15,SSE,157,4.0,14.0,85,0.00,,,0.00,Weather View 32 v70,2013-04-18 20:35:00,
2013-04-18 16:40:00,83.0,78.0,30.15,WSW,247,3.0,11.0,85,0.00,,,0.00,Weather View 32 v70,2013-04-18 20:40:00,
2013-04-18 16:45:00,84.0,79.3,30.15,East,90,4.0,11.0,86,0.00,,,0.00,Weather View 32 v70,2013-04-18 20:45:00,
2013-04-18 16:50:00,85.0,80.3,30.15,WSW,247,2.0,11.0,86,0.00,,,0.00,Weather View 32 v70,2013-04-18 20:50:00,
2013-04-18 17:00:00,84.0,79.3,30.16,WSW,247,10.0,13.0,86,0.00,,,0.00,Weather View 32 v70,2013-04-18 21:00:00,
2013-04-18 17:05:00,85.0,80.3,30.15,WSW,247,6.0,13.0,86,0.00,,,0.00,Weather View 32 v70,2013-04-18 21:05:00,
2013-04-18 17:15:00,85.0,80.3,30.16,WSW,247,6.0,13.0,86,0.00,,,0.00,Weather View 32 v70,2013-04-18 21:15:00,
2013-04-18 17:20:00,85.0,80.3,30.15,South,180,3.0,13.0,86,0.00,,,0.00,Weather View 32 v70,2013-04-18 21:20:00,
2013-04-18 17:25:00,85.0,80.3,30.15,SSE,157,9.0,13.0,86,0.00,,,0.00,Weather View 32 v70,2013-04-18 21:25:00,
2013-04-18 17:30:00,84.0,79.3,30.15,SSE,157,7.0,13.0,86,0.00,,,0.00,Weather View 32 v70,2013-04-18 21:30:00,
2013-04-18 17:35:00,83.0,78.0,30.15,South,180,8.0,15.0,85,0.00,,,0.00,Weather View 32 v70,2013-04-18 21:35:00,
2013-04-18 17:40:00,83.0,78.0,30.15,WSW,247,10.0,16.0,85,0.00,,,0.00,Weather View 32 v70,2013-04-18 21:40:00,
2013-04-18 17:45:00,82.0,77.0,30.15,WSW,247,7.0,16.0,85,0.00,,,0.00,Weather View 32 v70,2013-04-18 21:45:00,
2013-04-18 17:50:00,83.0,78.0,30.15,WSW,247,10.0,16.0,85,0.00,,,0.00,Weather View 32 v70,2013-04-18 21:50:00,
2013-04-18 17:55:00,83.0,78.0,30.14,WSW,247,12.0,16.0,85,0.00,,,0.00,Weather View 32 v70,2013-04-18 21:55:00,
2013-04-18 18:00:00,82.0,77.0,30.14,WSW,247,9.0,16.0,85,0.00,,,0.00,Weather View 32 v70,2013-04-18 22:00:00,
2013-04-18 18:05:00,82.0,77.0,30.14,WSW,247,10.0,16.0,85,0.00,,,0.00,Weather View 32 v70,2013-04-18 22:05:00,
2013-04-18 18:10:00,82.0,77.0,30.14,SSE,157,6.0,16.0,85,0.00,,,0.00,Weather View 32 v70,2013-04-18 22:10:00,
2013-04-18 18:15:00,82.0,77.0,30.14,SSE,157,0.0,16.0,85,0.00,,,0.00,Weather View 32 v70,2013-04-18 22:15:00,
2013-04-18 18:20:00,83.0,78.0,30.14,South,180,7.0,16.0,85,0.00,,,0.00,Weather View 32 v70,2013-04-18 22:20:00,
2013-04-18 18:25:00,83.0,78.0,30.14,South,180,7.0,16.0,85,0.00,,,0.00,Weather View 32 v70,2013-04-18 22:25:00,
2013-04-18 18:30:00,81.0,76.0,30.14,South,180,4.0,16.0,85,0.00,,,0.00,Weather View 32 v70,2013-04-18 22:30:00,
2013-04-18 18:40:00,82.0,77.0,30.13,South,180,4.0,15.0,85,0.00,,,0.00,Weather View 32 v70,2013-04-18 22:40:00,
2013-04-18 18:45:00,82.0,77.0,30.13,WSW,247,5.0,15.0,85,0.00,,,0.00,Weather View 32 v70,2013-04-18 22:45:00,
2013-04-18 18:50:00,82.0,77.0,30.13,South,180,10.0,15.0,85,0.00,,,0.00,Weather View 32 v70,2013-04-18 22:50:00,
2013-04-18 18:55:00,82.0,77.0,30.13,WSW,247,8.0,15.0,85,0.00,,,0.00,Weather View 32 v70,2013-04-18 22:55:00,
2013-04-18 19:00:00,81.0,76.0,30.13,South,180,7.0,15.0,85,0.00,,,0.00,Weather View 32 v70,2013-04-18 23:00:00,
2013-04-18 19:05:00,82.0,77.0,30.13,SSE,157,4.0,15.0,85,0.00,,,0.00,Weather View 32 v70,2013-04-18 23:05:00,
2013-04-18 19:10:00,81.0,76.0,30.13,South,180,11.0,15.0,85,0.00,,,0.00,Weather View 32 v70,2013-04-18 23:10:00,
2013-04-18 19:15:00,81.0,76.0,30.12,South,180,6.0,15.0,85,0.00,,,0.00,Weather View 32 v70,2013-04-18 23:15:00,
2013-04-18 19:20:00,81.0,76.0,30.12,WSW,247,10.0,15.0,85,0.00,,,0.00,Weather View 32 v70,2013-04-18 23:20:00,
2013-04-18 19:25:00,80.0,75.1,30.12,SSE,157,3.0,15.0,85,0.00,,,0.00,Weather View 32 v70,2013-04-18 23:25:00,
2013-04-18 19:30:00,80.0,75.1,30.12,South,180,2.0,15.0,85,0.00,,,0.00,Weather View 32 v70,2013-04-18 23:30:00,
2013-04-18 19:35:00,80.0,75.1,30.12,WSW,247,9.0,15.0,85,0.00,,,0.00,Weather View 32 v70,2013-04-18 23:35:00,
2013-04-18 19:40:00,79.0,74.1,30.12,South,180,2.0,15.0,85,0.00,,,0.00,Weather View 32 v70,2013-04-18 23:40:00,
2013-04-18 19:45:00,79.0,74.1,30.12,SSE,157,1.0,15.0,85,0.00,,,0.00,Weather View 32 v70,2013-04-18 23:45:00,
2013-04-18 19:50:00,79.0,74.1,30.12,SSE,157,3.0,15.0,85,0.00,,,0.00,Weather View 32 v70,2013-04-18 23:50:00,
2013-04-18 19:55:00,79.0,74.1,30.12,South,180,0.0,15.0,85,0.00,,,0.00,Weather View 32 v70,2013-04-18 23:55:00,
2013-04-18 20:00:00,78.0,73.1,30.12,WSW,247,3.0,15.0,85,0.00,,,0.00,Weather View 32 v70,2013-04-19 00:00:00,
2013-04-18 20:10:00,78.0,73.1,30.12,WSW,247,5.0,15.0,85,0.00,,,0.00,Weather View 32 v70,2013-04-19 00:10:00,
2013-04-18 20:15:00,77.0,71.8,30.12,WSW,247,1.0,15.0,84,0.00,,,0.00,Weather View 32 v70,2013-04-19 00:15:00,
2013-04-18 20:20:00,77.0,71.8,30.12,South,180,4.0,14.0,84,0.00,,,0.00,Weather View 32 v70,2013-04-19 00:20:00,
2013-04-18 20:25:00,77.0,71.8,30.12,WSW,247,3.0,10.0,84,0.00,,,0.00,Weather View 32 v70,2013-04-19 00:25:00,
2013-04-18 20:30:00,77.0,71.8,30.13,South,180,2.0,9.0,84,0.00,,,0.00,Weather View 32 v70,2013-04-19 00:30:00,
2013-04-18 20:35:00,77.0,71.4,30.13,SSE,157,2.0,9.0,83,0.00,,,0.00,Weather View 32 v70,2013-04-19 00:35:00,
2013-04-18 20:40:00,77.0,71.4,30.13,South,180,2.0,9.0,83,0.00,,,0.00,Weather View 32 v70,2013-04-19 00:40:00,
2013-04-18 20:45:00,77.0,71.4,30.13,South,180,2.0,10.0,83,0.00,,,0.00,Weather View 32 v70,2013-04-19 00:45:00,
2013-04-18 20:50:00,77.0,71.4,30.13,WSW,247,9.0,10.0,83,0.00,,,0.00,Weather View 32 v70,2013-04-19 00:50:00,
2013-04-18 20:55:00,77.0,71.4,30.13,WSW,247,7.0,10.0,83,0.00,,,0.00,Weather View 32 v70,2013-04-19 00:55:00,
2013-04-18 21:00:00,77.0,71.4,30.13,WSW,247,4.0,10.0,83,0.00,,,0.00,Weather View 32 v70,2013-04-19 01:00:00,
2013-04-18 21:05:00,77.0,71.4,30.13,WSW,247,6.0,10.0,83,0.00,,,0.00,Weather View 32 v70,2013-04-19 01:05:00,
2013-04-18 21:10:00,77.0,71.1,30.13,South,180,4.0,10.0,82,0.00,,,0.00,Weather View 32 v70,2013-04-19 01:10:00,
2013-04-18 21:15:00,76.0,70.1,30.13,WSW,247,0.0,10.0,82,0.00,,,0.00,Weather View 32 v70,2013-04-19 01:15:00,
2013-04-18 21:20:00,76.0,70.1,30.13,South,180,3.0,10.0,82,0.00,,,0.00,Weather View 32 v70,2013-04-19 01:20:00,
2013-04-18 21:25:00,76.0,69.7,30.13,WSW,247,0.0,10.0,81,0.00,,,0.00,Weather View 32 v70,2013-04-19 01:25:00,
2013-04-18 21:30:00,76.0,69.7,30.13,South,180,6.0,10.0,81,0.00,,,0.00,Weather View 32 v70,2013-04-19 01:30:00,
2013-04-18 21:40:00,76.0,69.7,30.13,WSW,247,1.0,10.0,81,0.00,,,0.00,Weather View 32 v70,2013-04-19 01:40:00,
2013-04-18 21:45:00,76.0,69.7,30.13,SSE,157,2.0,10.0,81,0.00,,,0.00,Weather View 32 v70,2013-04-19 01:45:00,
2013-04-18 21:50:00,76.0,69.7,30.13,WSW,247,5.0,10.0,81,0.00,,,0.00,Weather View 32 v70,2013-04-19 01:50:00,
2013-04-18 21:55:00,76.0,69.7,30.13,WSW,247,6.0,9.0,81,0.00,,,0.00,Weather View 32 v70,2013-04-19 01:55:00,
2013-04-18 22:00:00,76.0,69.7,30.14,WSW,247,2.0,9.0,81,0.00,,,0.00,Weather View 32 v70,2013-04-19 02:00:00,
2013-04-18 22:05:00,76.0,69.4,30.14,South,180,0.0,9.0,80,0.00,,,0.00,Weather View 32 v70,2013-04-19 02:05:00,
2013-04-18 22:10:00,76.0,69.4,30.14,South,180,0.0,9.0,80,0.00,,,0.00,Weather View 32 v70,2013-04-19 02:10:00,
2013-04-18 22:15:00,75.0,68.0,30.14,South,180,1.0,9.0,79,0.00,,,0.00,Weather View 32 v70,2013-04-19 02:15:00,
2013-04-18 22:20:00,75.0,67.6,30.14,WSW,247,1.0,9.0,78,0.00,,,0.00,Weather View 32 v70,2013-04-19 02:20:00,
2013-04-18 22:25:00,75.0,67.6,30.14,SSE,157,0.0,9.0,78,0.00,,,0.00,Weather View 32 v70,2013-04-19 02:25:00,
2013-04-18 22:30:00,75.0,67.6,30.15,SSE,157,0.0,9.0,78,0.00,,,0.00,Weather View 32 v70,2013-04-19 02:30:00,
2013-04-18 22:35:00,75.0,67.6,30.15,WSW,247,2.0,9.0,78,0.00,,,0.00,Weather View 32 v70,2013-04-19 02:35:00,
2013-04-18 22:40:00,75.0,67.6,30.15,WSW,247,2.0,9.0,78,0.00,,,0.00,Weather View 32 v70,2013-04-19 02:40:00,
2013-04-18 22:45:00,75.0,67.6,30.15,SSE,157,2.0,9.0,78,0.00,,,0.00,Weather View 32 v70,2013-04-19 02:45:00,
2013-04-18 22:50:00,75.0,67.3,30.15,South,180,0.0,8.0,77,0.00,,,0.00,Weather View 32 v70,2013-04-19 02:50:00,
2013-04-18 22:55:00,75.0,67.3,30.15,South,180,0.0,8.0,77,0.00,,,0.00,Weather View 32 v70,2013-04-19 02:55:00,
2013-04-18 23:05:00,75.0,66.9,30.14,SSE,157,5.0,7.0,76,0.00,,,0.00,Weather View 32 v70,2013-04-19 03:05:00,
2013-04-18 23:15:00,75.0,66.5,30.15,SSE,157,0.0,7.0,75,0.00,,,0.00,Weather View 32 v70,2013-04-19 03:15:00,
2013-04-18 23:20:00,75.0,66.5,30.15,South,180,0.0,7.0,75,0.00,,,0.00,Weather View 32 v70,2013-04-19 03:20:00,
2013-04-18 23:25:00,75.0,66.5,30.15,SSE,157,3.0,7.0,75,0.00,,,0.00,Weather View 32 v70,2013-04-19 03:25:00,
2013-04-18 23:30:00,75.0,66.5,30.15,South,180,1.0,8.0,75,0.00,,,0.00,Weather View 32 v70,2013-04-19 03:30:00,
2013-04-18 23:35:00,75.0,66.5,30.14,South,180,5.0,8.0,75,0.00,,,0.00,Weather View 32 v70,2013-04-19 03:35:00,
2013-04-18 23:40:00,75.0,66.1,30.14,South,180,2.0,8.0,74,0.00,,,0.00,Weather View 32 v70,2013-04-19 03:40:00,
2013-04-18 23:45:00,75.0,66.1,30.14,SSE,157,1.0,8.0,74,0.00,,,0.00,Weather View 32 v70,2013-04-19 03:45:00,
2013-04-18 23:50:00,75.0,65.7,30.14,SSE,157,2.0,8.0,73,0.00,,,0.00,Weather View 32 v70,2013-04-19 03:50:00,
2013-04-18 23:55:00,75.0,65.7,30.15,South,180,0.0,8.0,73,0.00,,,0.00,Weather View 32 v70,2013-04-19 03:55:00,